* Astronomy

Members Login
Post Info TOPIC: Asteroid 2011 AK5


L

Posts: 131433
Date:
RE: Asteroid 2011 AK5
Permalink  
 


The 140 - 310 metre wide asteroid 2011 AK5 will make a close pass (27.6 LD, 0.0709 AU) travelling at 5.73 km/second, to the Earth-Moon system on the 13th August 2015 @ 19:56 UT 00:01.

See more

The Lunar Distance (LD), the distance between Earth and the Moon, equals 384,401 km, (or 0.00256 AU).



__________________


L

Posts: 131433
Date:
Permalink  
 

Orbital elements:
2011 AK5 PHA, Earth MOID = 0.0417 AU
Epoch 2011 Feb. 8.0 TT = JDT 2455600.5 MPC
M 200.60006 (2000.0) P Q
n 0.76239085 Peri. 331.38867 +0.33613853 +0.93982013
a 1.1867273 Node 318.17108 -0.84566593 +0.27256819
e 0.2253600 Incl. 5.26777 -0.41456005 +0.20602111
P 1.29 H 21.6 G 0.15 U 9

MPEC 2011 - A34


See more

__________________
Page 1 of 1  sorted by
 
Quick Reply

Please log in to post quick replies.



Create your own FREE Forum
Report Abuse
Powered by ActiveBoard